Lufkin, TX

7:39 AM CST on December 15, 2019 (GMT -0600)
Angelina County

Weather History for KLFK - October, 2019

Change the Weather History Date:

Tuesday, October 22, 2019

  Actual Average Record
Temperature  
Mean Temperature 61 °F 66 °F  
Max Temperature 77 °F 78 °F 96 °F (1939)
Min Temperature 45 °F 54 °F 33 °F (1910)
Degree Days  
Heating Degree Days 4 3  
Month to date heating degree days 28 32  
Since 1 July heating degree days 28 36  
Cooling Degree Days 0 4  
Month to date cooling degree days 160 121  
Year to date cooling degree days 2624 2518  
Growing Degree Days 11 (Base 50)    
Moisture  
Dew Point 43 °F    
Average Humidity 65    
Maximum Humidity 93    
Minimum Humidity 20    
Precipitation  
Precipitation 0.00 in 0.18 in 4.35 in (1919)
Month to date precipitation 3.08 3.25  
Year to date precipitation 36.07 37.92  
Snow  
Snow 0.00 in - - ()
Month to date snowfall 0.0  
Since 1 July snowfall 0.0  
Since 1 September snowfall 0.0  
Snow Depth 0.00 in    
Sea Level Pressure  
Sea Level Pressure 30.15 in    
Wind  
Wind Speed 2 mph ()    
Max Wind Speed 12 mph    
Max Gust Speed 16 mph    
Visibility 10.0 miles    
Events      
T = Trace of Precipitation, MM = Missing Value Source: Averaged Metar Reports

Daily Weather History Graph

Daily Weather History Graph

Search for Another Location

Airport or City:

Astronomy

Oct. 22, 2019 Rise Set
Actual Time 7:26 AM CDT 6:39 PM CDT
Civil Twilight 7:02 AM CDT 7:04 PM CDT
Nautical Twilight 6:33 AM CDT 7:32 PM CDT
Astronomical Twilight 6:05 AM CDT 8:00 PM CDT
Moon 1:09 AM CDT (10/22) 3:20 PM CDT (10/22)
Length of Visible Light 12h 02m
Length of Day
11h 13m
Last Quarter, 37% of the Moon is Illuminated
Oct 22
Last Quarter
Oct 27
New
Nov 4
First Quarter
Nov 12
Full
Nov 19
Last Quarter

Hourly Weather History & Observations

Time (CDT) Temp. Dew Point Humidity Pressure Visibility Wind Dir Wind Speed Gust Speed Precip Events Conditions
12:53 AM 52.0 °F 46.9 °F 83% 30.06 in 10.0 mi Calm Calm - N/A   Clear
1:53 AM 50.0 °F 46.9 °F 89% 30.08 in 10.0 mi Calm Calm - N/A   Clear
2:53 AM 48.9 °F 46.0 °F 90% 30.07 in 10.0 mi Calm Calm - N/A   Clear
3:53 AM 50.0 °F 46.0 °F 86% 30.08 in 10.0 mi NW 3.5 mph - N/A   Clear
4:53 AM 46.9 °F 44.1 °F 90% 30.09 in 10.0 mi Calm Calm - N/A   Clear
5:53 AM 46.9 °F 45.0 °F 93% 30.11 in 10.0 mi Calm Calm - N/A   Clear
6:53 AM 46.0 °F 44.1 °F 93% 30.13 in 10.0 mi Calm Calm - N/A   Clear
7:53 AM 46.9 °F 45.0 °F 93% 30.15 in 10.0 mi Calm Calm - N/A   Clear
8:53 AM 54.0 °F 48.0 °F 80% 30.19 in 10.0 mi NW 4.6 mph - N/A   Clear
9:53 AM 62.1 °F 48.9 °F 62% 30.22 in 10.0 mi NNW 6.9 mph - N/A   Clear
10:53 AM 68.0 °F 43.0 °F 40% 30.23 in 10.0 mi North 6.9 mph - N/A   Clear
11:53 AM 71.1 °F 39.9 °F 32% 30.24 in 10.0 mi North 6.9 mph - N/A   Clear
12:53 PM 73.0 °F 37.9 °F 28% 30.23 in 10.0 mi NNW 5.8 mph - N/A   Clear
1:53 PM 75.0 °F 37.9 °F 26% 30.20 in 10.0 mi NW 5.8 mph - N/A   Clear
2:53 PM 75.9 °F 32.0 °F 20% 30.17 in 10.0 mi North 8.1 mph 16.1 mph N/A   Clear
3:53 PM 75.9 °F 34.0 °F 22% 30.15 in 10.0 mi North 8.1 mph - N/A   Clear
4:53 PM 75.0 °F 33.1 °F 22% 30.14 in 10.0 mi NNE 6.9 mph - N/A   Clear
5:53 PM 73.0 °F 36.0 °F 26% 30.13 in 10.0 mi North 3.5 mph - N/A   Clear
6:53 PM 62.1 °F 46.0 °F 56% 30.14 in 10.0 mi Calm Calm - N/A   Clear
7:53 PM 55.9 °F 50.0 °F 80% 30.14 in 10.0 mi Calm Calm - N/A   Clear
8:53 PM 54.0 °F 48.9 °F 83% 30.15 in 10.0 mi Calm Calm - N/A   Clear
9:53 PM 52.0 °F 46.9 °F 83% 30.14 in 10.0 mi Calm Calm - N/A   Clear
10:53 PM 51.1 °F 46.9 °F 86% 30.15 in 10.0 mi Calm Calm - N/A   Clear
11:53 PM 48.9 °F 46.0 °F 90% 30.15 in 10.0 mi Calm Calm - N/A   Clear